Champaign, IL

1:40 PM CDT on July 17, 2019 (GMT -0500)
Univ Of Illinois-Willard

Weather History for KCMI - May, 2019

Change the Weather History Date:

Thursday, May 23, 2019

  Actual Average Record
Temperature  
Mean Temperature 72 °F 66 °F  
Max Temperature 79 °F 78 °F 91 °F (2007)
Min Temperature 64 °F 54 °F 41 °F (2006)
Degree Days  
Heating Degree Days 0 3  
Month to date heating degree days 136 123  
Since 1 July heating degree days 5899 5787  
Cooling Degree Days 7 4  
Month to date cooling degree days 41 48  
Year to date cooling degree days 44 59  
Growing Degree Days 22 (Base 50)    
Moisture  
Dew Point 63 °F    
Average Humidity 76    
Maximum Humidity 93    
Minimum Humidity 58    
Precipitation  
Precipitation 0.44 in 0.15 in 1.61 in (1949)
Month to date precipitation 3.89 3.45  
Year to date precipitation 16.03 14.06  
Sea Level Pressure  
Sea Level Pressure 30.03 in    
Wind  
Wind Speed 10 mph (WSW)    
Max Wind Speed 44 mph    
Max Gust Speed 68 mph    
Visibility 9 miles    
Events Fog , Rain , Thunderstorm    
T = Trace of Precipitation, MM = Missing Value Source: NWS Daily Summary

Daily Weather History Graph

Daily Weather History Graph

Search for Another Location

Airport or City:

Astronomy

May. 23, 2019 Rise Set
Actual Time 5:31 AM CDT 8:08 PM CDT
Civil Twilight 5:00 AM CDT 8:40 PM CDT
Nautical Twilight 4:20 AM CDT 9:19 PM CDT
Astronomical Twilight 3:36 AM CDT 10:03 PM CDT
Moon No Moon Rise 9:34 AM CDT (5/23)
Length of Visible Light 15h 40m
Length of Day
14h 37m
Waning Gibbous, 77% of the Moon is Illuminated
May 23
Waning Gibbous
May 26
Last Quarter
Jun 3
New
Jun 10
First Quarter
Jun 17
Full

Hourly Weather History & Observations

Time (CDT) Temp. Dew Point Humidity Pressure Visibility Wind Dir Wind Speed Gust Speed Precip Events Conditions
12:53 AM 72.0 °F 68.0 °F 87% 29.90 in 9.0 mi South 19.6 mph - N/A   Clear
1:40 AM 73.0 °F 69.1 °F 87% 29.96 in 9.0 mi SW 19.6 mph 31.1 mph N/A Thunderstorm Mostly Cloudy
1:45 AM 68.0 °F 64.0 °F 87% 29.96 in 1.5 mi West 43.7 mph 67.9 mph 0.12 in Rain , Thunderstorm Light Rain
1:48 AM 66.2 °F 62.6 °F 88% 29.98 in 1.0 mi SW 42.6 mph 67.9 mph 0.20 in Rain , Thunderstorm Heavy Thunderstorms and Rain
1:53 AM 66.0 °F 63.0 °F 90% 29.97 in 0.5 mi SW 38.0 mph 67.9 mph 0.31 in Fog , Rain , Thunderstorm Heavy Thunderstorms and Rain
1:57 AM 64.9 °F 63.0 °F 93% 29.99 in 0.8 mi SW 28.8 mph 58.7 mph 0.03 in Rain , Thunderstorm Heavy Thunderstorms and Rain
2:02 AM 64.9 °F 63.0 °F 93% 29.98 in 2.0 mi SW 25.3 mph 49.5 mph 0.05 in Rain , Thunderstorm Thunderstorms and Rain
2:10 AM 66.0 °F 63.0 °F 90% 29.98 in 6.0 mi WSW 25.3 mph 38.0 mph 0.06 in Rain , Thunderstorm Light Thunderstorms and Rain
2:29 AM 66.9 °F 62.1 °F 84% 29.99 in 10.0 mi West 18.4 mph 29.9 mph 0.06 in Rain , Thunderstorm Light Rain
2:49 AM 66.2 °F 62.6 °F 88% 30.01 in 10.0 mi SW 18.4 mph 26.5 mph 0.07 in Rain Light Rain
2:53 AM 66.9 °F 62.1 °F 84% 30.00 in 9.0 mi SW 17.3 mph 26.5 mph 0.07 in Rain , Thunderstorm Light Rain
3:03 AM 66.9 °F 63.0 °F 87% 30.01 in 9.0 mi SSW 17.3 mph 27.6 mph 0.02 in Rain , Thunderstorm Light Thunderstorms and Rain
3:32 AM 66.0 °F 64.0 °F 93% 29.98 in 8.0 mi SSW 10.4 mph - 0.06 in Rain Light Rain
3:53 AM 68.0 °F 62.1 °F 81% 29.98 in 10.0 mi SW 16.1 mph - 0.06 in   Mostly Cloudy
4:53 AM 66.0 °F 63.0 °F 90% 29.99 in 10.0 mi SSW 10.4 mph - 0.00 in   Mostly Cloudy
5:53 AM 66.0 °F 63.0 °F 90% 30.01 in 10.0 mi SSW 12.7 mph - N/A   Partly Cloudy
6:41 AM 66.0 °F 63.0 °F 90% 30.04 in 10.0 mi SW 8.1 mph - 0.00 in   Overcast
6:53 AM 66.0 °F 64.0 °F 93% 30.03 in 10.0 mi SW 8.1 mph - 0.00 in   Mostly Cloudy
7:22 AM 68.0 °F 64.9 °F 90% 30.04 in 10.0 mi SW 9.2 mph - N/A   Mostly Cloudy
7:53 AM 70.0 °F 66.0 °F 87% 30.03 in 10.0 mi WSW 10.4 mph - N/A   Partly Cloudy
8:32 AM 70.0 °F 64.9 °F 84% 30.05 in 10.0 mi West 12.7 mph - N/A   Mostly Cloudy
8:53 AM 70.0 °F 66.0 °F 87% 30.06 in 10.0 mi West 11.5 mph - N/A   Mostly Cloudy
9:53 AM 71.1 °F 64.9 °F 81% 30.06 in 10.0 mi West 10.4 mph - N/A   Mostly Cloudy
10:19 AM 71.1 °F 62.1 °F 73% 30.08 in 10.0 mi WNW 9.2 mph - N/A   Partly Cloudy
10:53 AM 72.0 °F 62.1 °F 71% 30.07 in 10.0 mi WNW 6.9 mph - N/A   Clear
11:53 AM 73.9 °F 63.0 °F 68% 30.08 in 10.0 mi West 5.8 mph - N/A   Clear
12:53 PM 75.9 °F 64.0 °F 67% 30.08 in 10.0 mi West 8.1 mph - N/A   Clear
1:53 PM 77.0 °F 63.0 °F 62% 30.06 in 10.0 mi West 9.2 mph - N/A   Clear
2:53 PM 78.1 °F 64.0 °F 62% 30.06 in 10.0 mi West 13.8 mph 17.3 mph N/A   Clear
3:53 PM 79.0 °F 64.0 °F 60% 30.05 in 10.0 mi WSW 11.5 mph - N/A   Clear
4:53 PM 78.1 °F 63.0 °F 60% 30.07 in 10.0 mi West 10.4 mph - N/A   Clear
5:53 PM 78.1 °F 62.1 °F 58% 30.07 in 10.0 mi West 10.4 mph - N/A   Clear
6:53 PM 75.9 °F 63.0 °F 64% 30.07 in 10.0 mi West 9.2 mph - N/A   Clear
7:53 PM 72.0 °F 64.0 °F 76% 30.06 in 10.0 mi West 5.8 mph - N/A   Clear
8:53 PM 68.0 °F 62.1 °F 81% 30.07 in 10.0 mi NW 5.8 mph - N/A   Clear
9:53 PM 66.0 °F 61.0 °F 84% 30.09 in 10.0 mi North 8.1 mph - N/A   Clear
10:53 PM 66.0 °F 61.0 °F 84% 30.08 in 10.0 mi North 4.6 mph - N/A   Clear
11:53 PM 64.0 °F 59.0 °F 84% 30.09 in 10.0 mi Calm Calm - N/A   Clear